{"data":{"norad_id":60537,"epoch":"2026-05-25T04:06:59.785920Z","epoch_age_seconds":53505,"freshness":"FRESH","line1":"1 60537U 24149BX  26145.17152530  .00001596  00000+0  14521-3 0  9999","line2":"2 60537  97.6744 220.0918 0003657 102.7900 257.3731 14.96575128 96531","mean_motion":14.96575128,"eccentricity":0.0003657,"inclination_deg":97.6744,"raan_deg":220.0918,"arg_perigee_deg":102.79,"mean_anomaly_deg":257.3731,"bstar":0.00014521,"rev_number":9653,"period_min":96.219693422568,"perigee_km":574.9443179438,"apogee_km":580.03166206149,"semimajor_km":6955.6249900026,"source":"CELESTRAK","updated_at":"2026-05-25T13:38:02.147926Z"}}